PIA952 EGLL-OPIS

Flight info

Callsign PIA952
Flight time 6h 58m
Altitude 39000
Route DET1J DET L6 DVR L9 KONAN UL607 KOK DCT MATUG DCT GUBAX DCT BOREP DCT ENITA DCT PEPIK DCT BALAP DCT NARKA DCT DENAK DCT DINRO DCT UDROS DCT KARDE/N0483F370 DCT ROLIN N644 TETRO DCT BARAD M747 SUBUT T923 ERLEV M11 RODAR A909 BABUM DCT ABEKO DCT BUROT DCT NINOP DCT SERGO DCT KODAD DCT HANGU DCT NONIB DCT KALMI KALMI1A
Aircraft B77W/H-SDE3FGHIM1M2RWXYZ/LB1D1

Departure

Time 2026-05-09 11:28
Airport London Heathrow Airport (EGLL)

Arrival

Time 2026-05-09 18:26
Airport Islamabad International Airport (OPIS)
Time Latitude Longitude Altitude Speed Heading
2026-05-09 11:17 51.46987 -0.46993 94 ft 0 kts 270°
2026-05-09 11:20 51.46987 -0.46992 95 ft 2 kts 270°
2026-05-09 11:21 51.46987 -0.46964 94 ft 3 kts 270°
2026-05-09 11:21 51.46987 -0.46936 92 ft 2 kts 270°
2026-05-09 11:21 51.46987 -0.46908 92 ft 2 kts 270°
2026-05-09 11:21 51.46987 -0.46880 91 ft 2 kts 270°
2026-05-09 11:22 51.46987 -0.46853 91 ft 2 kts 270°
2026-05-09 11:22 51.46987 -0.46825 91 ft 2 kts 270°
2026-05-09 11:22 51.46987 -0.46805 89 ft 0 kts 270°
2026-05-09 11:22 51.46967 -0.46859 92 ft 0 kts 217°
2026-05-09 11:23 51.46894 -0.46862 90 ft 22 kts 179°
2026-05-09 11:23 51.46848 -0.46861 92 ft 0 kts 179°
2026-05-09 11:23 51.46793 -0.46863 93 ft 17 kts 189°
2026-05-09 11:23 51.46769 -0.46885 94 ft 3 kts 231°
2026-05-09 11:24 51.46750 -0.46987 93 ft 17 kts 263°
2026-05-09 11:24 51.46745 -0.47198 92 ft 19 kts 270°
2026-05-09 11:24 51.46746 -0.47412 90 ft 19 kts 269°
2026-05-09 11:24 51.46744 -0.47630 86 ft 20 kts 269°
2026-05-09 11:25 51.46742 -0.47767 89 ft 8 kts 264°
2026-05-09 11:25 51.46716 -0.47837 92 ft 8 kts 213°
2026-05-09 11:25 51.46669 -0.47888 90 ft 9 kts 232°
2026-05-09 11:25 51.46655 -0.47980 90 ft 9 kts 265°
2026-05-09 11:26 51.46654 -0.48076 90 ft 9 kts 269°
2026-05-09 11:26 51.46651 -0.48134 91 ft 0 kts 258°
2026-05-09 11:26 51.46646 -0.48155 93 ft 5 kts 248°
2026-05-09 11:26 51.46598 -0.48206 95 ft 13 kts 191°
2026-05-09 11:27 51.46498 -0.48162 95 ft 17 kts 127°
2026-05-09 11:27 51.46480 -0.47979 88 ft 17 kts 90°
2026-05-09 11:27 51.46480 -0.47540 85 ft 85 kts 90°
2026-05-09 11:27 51.46493 -0.46034 118 ft 183 kts 88°
2026-05-09 11:28 51.46524 -0.44002 1518 ft 173 kts 87°
2026-05-09 11:28 51.46559 -0.41977 2922 ft 190 kts 99°
2026-05-09 11:28 51.45997 -0.39972 4081 ft 202 kts 121°
2026-05-09 11:28 51.45246 -0.38005 5472 ft 213 kts 120°
2026-05-09 11:29 51.44444 -0.35961 6745 ft 222 kts 118°
2026-05-09 11:29 51.43757 -0.33638 7770 ft 241 kts 111°
2026-05-09 11:29 51.43202 -0.30991 8791 ft 259 kts 106°
2026-05-09 11:29 51.42740 -0.28097 9787 ft 276 kts 103°
2026-05-09 11:30 51.42312 -0.25008 10766 ft 292 kts 102°
2026-05-09 11:30 51.41872 -0.21761 11726 ft 305 kts 102°
2026-05-09 11:30 51.41412 -0.18379 12730 ft 317 kts 102°
2026-05-09 11:30 51.40933 -0.14875 13731 ft 327 kts 102°
2026-05-09 11:31 51.40437 -0.11273 14667 ft 335 kts 103°
2026-05-09 11:31 51.39930 -0.07605 15600 ft 342 kts 103°
2026-05-09 11:31 51.39409 -0.03838 16550 ft 348 kts 104°
2026-05-09 11:31 51.38881 -0.00037 17515 ft 352 kts 104°
2026-05-09 11:32 51.38347 0.03805 18517 ft 354 kts 104°
2026-05-09 11:32 51.37809 0.07661 19393 ft 356 kts 105°
2026-05-09 11:32 51.37269 0.11519 20289 ft 355 kts 105°
2026-05-09 11:32 51.36729 0.15363 21215 ft 353 kts 105°
2026-05-09 11:33 51.36191 0.19192 22165 ft 350 kts 106°
2026-05-09 11:33 51.35659 0.22969 23132 ft 346 kts 106°
2026-05-09 11:33 51.34619 0.30325 24877 ft 331 kts 107°
2026-05-09 11:34 51.34117 0.33855 25848 ft 321 kts 108°
2026-05-09 11:34 51.33632 0.37271 26693 ft 311 kts 108°
2026-05-09 11:34 51.33150 0.40639 27157 ft 313 kts 108°
2026-05-09 11:34 51.32659 0.44053 27529 ft 316 kts 108°
2026-05-09 11:35 51.32165 0.47487 27930 ft 318 kts 109°
2026-05-09 11:35 51.31669 0.50935 28340 ft 319 kts 109°
2026-05-09 11:35 51.31168 0.54403 28735 ft 320 kts 109°
2026-05-09 11:35 51.30665 0.57878 29128 ft 321 kts 109°
2026-05-09 11:36 51.30141 0.61337 29535 ft 319 kts 111°
2026-05-09 11:36 51.29543 0.64737 29935 ft 318 kts 112°
2026-05-09 11:36 51.28917 0.68121 30253 ft 319 kts 113°
2026-05-09 11:36 51.28278 0.71538 30435 ft 323 kts 113°
2026-05-09 11:37 51.27632 0.74995 30598 ft 327 kts 112°
2026-05-09 11:37 51.26982 0.78498 30786 ft 332 kts 112°
2026-05-09 11:37 51.26318 0.82077 30913 ft 341 kts 112°
2026-05-09 11:37 51.25632 0.85774 30941 ft 355 kts 112°
2026-05-09 11:38 51.24916 0.89636 30866 ft 370 kts 112°
2026-05-09 11:38 51.24173 0.93649 30860 ft 384 kts 111°
2026-05-09 11:38 51.22672 1.01801 30836 ft 391 kts 111°
2026-05-09 11:39 51.21087 1.10331 30832 ft 411 kts 111°
2026-05-09 11:40 51.18562 1.23860 30925 ft 435 kts 111°
2026-05-09 11:40 51.17698 1.28477 31186 ft 436 kts 111°
2026-05-09 11:40 51.16826 1.33119 31439 ft 438 kts 111°
2026-05-09 11:40 51.16049 1.37830 31684 ft 443 kts 105°
2026-05-09 11:41 51.15731 1.42747 31935 ft 449 kts 98°
2026-05-09 11:41 51.15584 1.47711 32195 ft 449 kts 98°
2026-05-09 11:41 51.15424 1.52691 32447 ft 450 kts 98°
2026-05-09 11:41 51.15232 1.57659 32718 ft 450 kts 99°
2026-05-09 11:42 51.15010 1.62629 32955 ft 450 kts 99°
2026-05-09 11:42 51.14770 1.67587 33220 ft 450 kts 99°
2026-05-09 11:42 51.14520 1.72550 33490 ft 450 kts 99°
2026-05-09 11:42 51.14266 1.77513 33748 ft 449 kts 99°
2026-05-09 11:43 51.14011 1.82473 34013 ft 449 kts 99°
2026-05-09 11:43 51.13756 1.87421 34251 ft 449 kts 99°
2026-05-09 11:43 51.13501 1.92366 34479 ft 448 kts 99°
2026-05-09 11:43 51.13243 1.97313 34708 ft 448 kts 99°
2026-05-09 11:44 51.12984 2.02254 34935 ft 447 kts 99°
2026-05-09 11:44 51.12724 2.07172 35168 ft 446 kts 99°
2026-05-09 11:44 51.12462 2.12092 35402 ft 445 kts 99°
2026-05-09 11:44 51.12200 2.16994 35645 ft 444 kts 99°
2026-05-09 11:45 51.11935 2.21887 35876 ft 443 kts 99°
2026-05-09 11:45 51.11669 2.26764 36116 ft 442 kts 99°
2026-05-09 11:45 51.11402 2.31632 36354 ft 440 kts 99°
2026-05-09 11:45 51.11134 2.36475 36594 ft 439 kts 99°
2026-05-09 11:46 51.10865 2.41297 36834 ft 437 kts 99°
2026-05-09 11:46 51.10595 2.46103 37082 ft 435 kts 99°
2026-05-09 11:46 51.10324 2.50878 37335 ft 433 kts 99°
2026-05-09 11:46 51.10054 2.55635 37581 ft 430 kts 98°
2026-05-09 11:47 51.09783 2.60359 37836 ft 428 kts 98°
2026-05-09 11:47 51.09507 2.65049 38083 ft 424 kts 100°
2026-05-09 11:47 51.08984 2.69622 38319 ft 417 kts 108°
2026-05-09 11:47 51.08249 2.74061 38591 ft 413 kts 109°
2026-05-09 11:48 51.07727 2.77027 38750 ft 410 kts 109°
2026-05-09 11:48 51.06953 2.81364 38932 ft 406 kts 109°
2026-05-09 11:48 51.06189 2.85683 38998 ft 407 kts 109°
2026-05-09 11:49 51.04676 2.94432 38895 ft 413 kts 108°
2026-05-09 11:49 51.03183 3.03265 38981 ft 415 kts 108°
2026-05-09 11:50 51.01686 3.12159 38993 ft 418 kts 108°
2026-05-09 11:50 51.00176 3.21108 39005 ft 422 kts 108°
2026-05-09 11:51 50.98641 3.30144 39002 ft 426 kts 108°
2026-05-09 11:51 50.97084 3.39267 39000 ft 430 kts 108°
2026-05-09 11:52 50.95513 3.48421 39168 ft 429 kts 108°
2026-05-09 11:52 50.93942 3.57529 39365 ft 427 kts 108°
2026-05-09 11:53 50.92373 3.66577 39561 ft 424 kts 108°
2026-05-09 11:53 50.91600 3.71024 39665 ft 422 kts 108°
2026-05-09 11:53 50.90817 3.75511 39762 ft 420 kts 108°
2026-05-09 11:54 50.89248 3.84463 39778 ft 422 kts 108°
2026-05-09 11:54 50.87660 3.93473 39711 ft 425 kts 108°
2026-05-09 11:54 50.86865 3.97967 39818 ft 423 kts 108°
2026-05-09 11:55 50.86070 4.02456 39923 ft 422 kts 109°
2026-05-09 11:56 50.82026 4.24973 40137 ft 433 kts 109°
2026-05-09 11:56 50.81200 4.29577 40138 ft 437 kts 109°
2026-05-09 11:57 50.79520 4.38892 40134 ft 444 kts 109°
2026-05-09 11:57 50.77802 4.48364 40148 ft 451 kts 109°
2026-05-09 11:58 50.76063 4.57899 40141 ft 458 kts 109°
2026-05-09 11:58 50.74274 4.67650 40136 ft 464 kts 109°
2026-05-09 11:59 50.72455 4.77517 40132 ft 470 kts 109°
2026-05-09 11:59 50.70606 4.87495 40132 ft 476 kts 109°
2026-05-09 12:00 50.68741 4.97501 40115 ft 481 kts 109°
2026-05-09 12:00 50.66837 5.07660 40112 ft 485 kts 109°
2026-05-09 12:01 50.64904 5.17919 40121 ft 488 kts 109°
2026-05-09 12:01 50.62956 5.28205 40107 ft 491 kts 109°
2026-05-09 12:02 50.60988 5.38537 40108 ft 493 kts 109°
2026-05-09 12:02 50.59016 5.48836 40102 ft 496 kts 109°
2026-05-09 12:03 50.57007 5.59263 40106 ft 498 kts 109°
2026-05-09 12:03 50.54986 5.69706 40113 ft 499 kts 109°
2026-05-09 12:04 50.52959 5.80115 40111 ft 500 kts 109°
2026-05-09 12:04 50.50900 5.90636 40109 ft 502 kts 109°
2026-05-09 12:05 50.48845 6.01081 40097 ft 503 kts 109°
2026-05-09 12:05 50.46770 6.11570 40097 ft 503 kts 109°
2026-05-09 12:06 50.44681 6.22080 40093 ft 504 kts 109°
2026-05-09 12:06 50.42581 6.32599 40088 ft 505 kts 109°
2026-05-09 12:07 50.40935 6.43269 40086 ft 507 kts 98°
2026-05-09 12:07 50.40219 6.54283 40095 ft 508 kts 97°
2026-05-09 12:08 50.39491 6.65310 40092 ft 508 kts 97°
2026-05-09 12:08 50.38660 6.76314 40099 ft 508 kts 98°
2026-05-09 12:09 50.37782 6.87266 40102 ft 509 kts 98°
2026-05-09 12:09 50.36888 6.98278 40106 ft 509 kts 98°
2026-05-09 12:10 50.35088 7.20222 40105 ft 509 kts 98°
2026-05-09 12:11 50.34169 7.31257 40113 ft 509 kts 98°
2026-05-09 12:11 50.33251 7.42145 40119 ft 509 kts 98°
2026-05-09 12:12 50.32319 7.53073 40118 ft 509 kts 98°
2026-05-09 12:12 50.31380 7.63963 40124 ft 510 kts 98°
2026-05-09 12:13 50.30422 7.74955 40122 ft 510 kts 98°
2026-05-09 12:13 50.29454 7.85971 40125 ft 509 kts 98°
2026-05-09 12:14 50.28437 7.96883 40129 ft 510 kts 99°
2026-05-09 12:14 50.27240 8.07831 40115 ft 510 kts 100°
2026-05-09 12:15 50.26009 8.18764 40123 ft 510 kts 100°
2026-05-09 12:15 50.24798 8.29631 40121 ft 510 kts 100°
2026-05-09 12:16 50.23584 8.40579 40118 ft 510 kts 100°
2026-05-09 12:16 50.22364 8.51513 40113 ft 511 kts 100°
2026-05-09 12:17 50.21140 8.62382 40116 ft 511 kts 100°
2026-05-09 12:17 50.19896 8.73319 40107 ft 511 kts 100°
2026-05-09 12:18 50.18640 8.84255 40111 ft 512 kts 100°
2026-05-09 12:18 50.17370 8.95221 40118 ft 512 kts 100°
2026-05-09 12:19 50.16090 9.06176 40122 ft 513 kts 100°
2026-05-09 12:19 50.14808 9.17058 40120 ft 513 kts 101°
2026-05-09 12:20 50.13505 9.28028 40114 ft 514 kts 101°
2026-05-09 12:20 50.12194 9.38973 40120 ft 514 kts 101°
2026-05-09 12:21 50.10870 9.49936 40118 ft 514 kts 101°
2026-05-09 12:21 50.09543 9.60822 40121 ft 514 kts 101°
2026-05-09 12:22 50.08194 9.71804 40123 ft 515 kts 101°
2026-05-09 12:22 50.06845 9.82698 40132 ft 515 kts 101°
2026-05-09 12:23 50.05478 9.93651 40132 ft 516 kts 101°
2026-05-09 12:23 50.04099 10.04612 40129 ft 516 kts 101°
2026-05-09 12:24 50.02707 10.15585 40128 ft 516 kts 101°
2026-05-09 12:24 50.01305 10.26556 40129 ft 517 kts 101°
2026-05-09 12:25 49.99901 10.37456 40123 ft 517 kts 101°
2026-05-09 12:25 49.98479 10.48419 40132 ft 517 kts 101°
2026-05-09 12:26 49.97047 10.59382 40124 ft 517 kts 101°
2026-05-09 12:26 49.95836 10.68505 40120 ft 518 kts 102°
2026-05-09 12:27 49.94101 10.81239 40129 ft 518 kts 102°
2026-05-09 12:27 49.92851 10.90346 40129 ft 518 kts 102°
2026-05-09 12:28 49.91341 11.01316 40126 ft 518 kts 102°
2026-05-09 12:28 49.89829 11.12247 40124 ft 518 kts 102°
2026-05-09 12:29 49.88305 11.23181 40121 ft 518 kts 102°
2026-05-09 12:29 49.86777 11.34053 40115 ft 518 kts 102°
2026-05-09 12:30 49.85230 11.44990 40117 ft 519 kts 102°
2026-05-09 12:30 49.82888 11.61391 40114 ft 519 kts 103°
2026-05-09 12:31 49.80533 11.77706 40112 ft 519 kts 103°
2026-05-09 12:32 49.78944 11.88619 40105 ft 519 kts 103°
2026-05-09 12:32 49.77338 11.99572 40113 ft 520 kts 103°
2026-05-09 12:33 49.75734 12.10438 40101 ft 520 kts 103°
2026-05-09 12:33 49.74111 12.21357 40112 ft 520 kts 103°
2026-05-09 12:34 49.72488 12.32198 40116 ft 520 kts 103°
2026-05-09 12:34 49.70845 12.43122 40117 ft 520 kts 103°
2026-05-09 12:35 49.69123 12.54012 40126 ft 520 kts 105°
2026-05-09 12:35 49.67182 12.64786 40123 ft 520 kts 106°
2026-05-09 12:36 49.65213 12.75482 40131 ft 520 kts 106°
2026-05-09 12:36 49.63254 12.86260 40137 ft 520 kts 106°
2026-05-09 12:37 49.61308 12.97029 40154 ft 521 kts 106°
2026-05-09 12:37 49.59368 13.07728 40153 ft 521 kts 106°
2026-05-09 12:38 49.57401 13.18501 40158 ft 521 kts 106°
2026-05-09 12:38 49.55422 13.29266 40155 ft 521 kts 107°
2026-05-09 12:39 49.53446 13.39951 40152 ft 522 kts 107°
2026-05-09 12:39 49.51445 13.50708 40144 ft 522 kts 107°
2026-05-09 12:40 49.49436 13.61448 40138 ft 522 kts 107°
2026-05-09 12:40 49.47415 13.72188 40139 ft 522 kts 107°
2026-05-09 12:41 49.45396 13.82856 40139 ft 522 kts 107°
2026-05-09 12:41 49.43354 13.93581 40145 ft 522 kts 107°
2026-05-09 12:42 49.41301 14.04307 40142 ft 523 kts 107°
2026-05-09 12:42 49.39239 14.15022 40139 ft 523 kts 107°
2026-05-09 12:43 49.37180 14.25658 40140 ft 523 kts 107°
2026-05-09 12:43 49.35093 14.36382 40143 ft 523 kts 108°
2026-05-09 12:44 49.33000 14.47072 40145 ft 523 kts 108°
2026-05-09 12:44 49.30907 14.57705 40148 ft 523 kts 108°
2026-05-09 12:45 49.28793 14.68387 40149 ft 523 kts 108°
2026-05-09 12:45 49.26668 14.79063 40147 ft 523 kts 108°
2026-05-09 12:46 49.24535 14.89725 40144 ft 524 kts 108°
2026-05-09 12:46 49.22398 15.00343 40137 ft 524 kts 108°
2026-05-09 12:47 49.20243 15.10996 40146 ft 524 kts 108°
2026-05-09 12:47 49.18076 15.21649 40140 ft 524 kts 108°
2026-05-09 12:48 49.15900 15.32290 40146 ft 524 kts 108°
2026-05-09 12:48 49.13722 15.42889 40140 ft 524 kts 108°
2026-05-09 12:49 49.11525 15.53517 40143 ft 524 kts 108°
2026-05-09 12:49 49.09319 15.64132 40145 ft 525 kts 109°
2026-05-09 12:50 49.07103 15.74742 40143 ft 525 kts 109°
2026-05-09 12:50 49.04873 15.85360 40148 ft 525 kts 109°
2026-05-09 12:51 49.02656 15.95867 40147 ft 525 kts 109°
2026-05-09 12:51 49.00404 16.06480 40152 ft 525 kts 109°
2026-05-09 12:52 48.98158 16.17011 40150 ft 525 kts 109°
2026-05-09 12:52 48.95886 16.27608 40149 ft 525 kts 109°
2026-05-09 12:53 48.93618 16.38133 40136 ft 525 kts 109°
2026-05-09 12:53 48.91327 16.48712 40133 ft 526 kts 109°
2026-05-09 12:54 48.89021 16.59300 40133 ft 526 kts 109°
2026-05-09 12:54 48.86726 16.69792 40135 ft 526 kts 109°
2026-05-09 12:55 48.84410 16.80327 40134 ft 525 kts 110°
2026-05-09 12:55 48.82080 16.90875 40132 ft 525 kts 110°
2026-05-09 12:56 48.79762 17.01331 40129 ft 525 kts 110°
2026-05-09 12:56 48.77278 17.11763 40128 ft 524 kts 116°
2026-05-09 12:57 48.74102 17.21719 40126 ft 523 kts 118°
2026-05-09 12:57 48.70848 17.31510 40121 ft 523 kts 118°
2026-05-09 12:58 48.67620 17.41431 40112 ft 524 kts 117°
2026-05-09 12:58 48.64436 17.51365 40108 ft 524 kts 117°
2026-05-09 12:59 48.61277 17.61222 40101 ft 524 kts 118°
2026-05-09 12:59 48.58083 17.71134 40102 ft 524 kts 118°
2026-05-09 13:00 48.54876 17.81031 40102 ft 524 kts 118°
2026-05-09 13:00 48.51676 17.90864 40101 ft 524 kts 118°
2026-05-09 13:01 48.48448 18.00746 40099 ft 524 kts 118°
2026-05-09 13:01 48.45229 18.10565 40097 ft 524 kts 118°
2026-05-09 13:02 48.41989 18.20410 40091 ft 524 kts 118°
2026-05-09 13:02 48.38737 18.30251 40079 ft 525 kts 118°
2026-05-09 13:03 48.35466 18.40115 40079 ft 525 kts 119°
2026-05-09 13:03 48.32213 18.49887 40083 ft 525 kts 119°
2026-05-09 13:04 48.28933 18.59699 40072 ft 526 kts 119°
2026-05-09 13:04 48.25643 18.69507 40071 ft 526 kts 119°
2026-05-09 13:05 48.22340 18.79314 40073 ft 526 kts 119°
2026-05-09 13:05 48.19043 18.89068 40066 ft 526 kts 119°
2026-05-09 13:06 48.15715 18.98877 40080 ft 527 kts 119°
2026-05-09 13:06 48.12947 19.07010 40054 ft 527 kts 119°
2026-05-09 13:07 48.09062 19.18393 40069 ft 527 kts 119°
2026-05-09 13:07 48.06288 19.26530 40047 ft 528 kts 118°
2026-05-09 13:08 48.03222 19.36510 40063 ft 529 kts 116°
2026-05-09 13:08 48.00265 19.46603 40060 ft 529 kts 116°
2026-05-09 13:09 47.97279 19.56680 40053 ft 529 kts 116°
2026-05-09 13:09 47.94278 19.66630 40049 ft 529 kts 116°
2026-05-09 13:10 47.91234 19.76637 40055 ft 528 kts 116°
2026-05-09 13:10 47.88185 19.86621 40055 ft 528 kts 116°
2026-05-09 13:11 47.85156 19.96512 40048 ft 528 kts 117°
2026-05-09 13:11 47.82096 20.06466 40051 ft 528 kts 117°
2026-05-09 13:12 47.79030 20.16401 40050 ft 528 kts 117°
2026-05-09 13:12 47.75950 20.26342 40052 ft 528 kts 117°
2026-05-09 13:13 47.72888 20.36188 40053 ft 528 kts 117°
2026-05-09 13:13 47.69792 20.46100 40054 ft 527 kts 117°
2026-05-09 13:14 47.66700 20.55962 40060 ft 527 kts 117°
2026-05-09 13:16 47.54241 20.95313 40049 ft 527 kts 117°
2026-05-09 13:16 47.51104 21.05127 40052 ft 526 kts 117°
2026-05-09 13:17 47.47980 21.14861 40047 ft 526 kts 117°
2026-05-09 13:17 47.44831 21.24637 40048 ft 526 kts 117°
2026-05-09 13:18 47.41687 21.34360 40049 ft 526 kts 117°
2026-05-09 13:18 47.38522 21.44114 40054 ft 526 kts 117°
2026-05-09 13:19 47.35367 21.53799 40046 ft 526 kts 118°
2026-05-09 13:19 47.32189 21.63519 40047 ft 525 kts 118°
2026-05-09 13:20 47.29000 21.73241 40050 ft 525 kts 118°
2026-05-09 13:20 47.25830 21.82872 40050 ft 525 kts 118°
2026-05-09 13:21 47.22256 21.92221 40050 ft 522 kts 126°
2026-05-09 13:21 47.18145 22.01015 40048 ft 521 kts 127°
2026-05-09 13:22 47.14014 22.09786 40047 ft 521 kts 127°
2026-05-09 13:22 47.09946 22.18599 40053 ft 521 kts 126°
2026-05-09 13:23 46.99862 22.40613 40058 ft 520 kts 126°
2026-05-09 13:24 46.95797 22.49426 40051 ft 520 kts 126°
2026-05-09 13:24 46.91763 22.58142 40060 ft 519 kts 126°
2026-05-09 13:25 46.87704 22.66881 40065 ft 519 kts 127°
2026-05-09 13:26 46.81596 22.79982 40062 ft 519 kts 126°
2026-05-09 13:26 46.77545 22.88637 40061 ft 519 kts 127°
2026-05-09 13:27 46.73463 22.97334 40066 ft 519 kts 127°
2026-05-09 13:27 46.69373 23.06018 40062 ft 519 kts 127°
2026-05-09 13:28 46.65276 23.14690 40061 ft 519 kts 127°
2026-05-09 13:28 46.61197 23.23297 40055 ft 519 kts 127°
2026-05-09 13:29 46.57086 23.31946 40047 ft 519 kts 127°
2026-05-09 13:29 46.52978 23.40562 40055 ft 518 kts 127°
2026-05-09 13:30 46.48857 23.49176 40057 ft 519 kts 127°
2026-05-09 13:30 46.44728 23.57783 40049 ft 519 kts 127°
2026-05-09 13:31 46.40614 23.66332 40044 ft 522 kts 127°
2026-05-09 13:31 46.36449 23.74959 40043 ft 521 kts 127°
2026-05-09 13:32 46.32305 23.83519 40045 ft 519 kts 127°
2026-05-09 13:32 46.26079 23.96327 40049 ft 517 kts 127°
2026-05-09 13:33 46.21951 24.04787 40049 ft 517 kts 127°
2026-05-09 13:33 46.17800 24.13270 40052 ft 516 kts 127°
2026-05-09 13:34 46.13666 24.21691 40058 ft 516 kts 127°
2026-05-09 13:34 46.09500 24.30154 40043 ft 518 kts 127°
2026-05-09 13:35 46.05314 24.38630 40051 ft 517 kts 127°
2026-05-09 13:35 46.01126 24.47085 40077 ft 518 kts 127°
2026-05-09 13:36 45.96943 24.55505 40044 ft 521 kts 127°
2026-05-09 13:36 45.92710 24.63999 40070 ft 522 kts 127°
2026-05-09 13:37 45.88486 24.72451 40038 ft 522 kts 127°
2026-05-09 13:37 45.84256 24.80890 40037 ft 519 kts 127°
2026-05-09 13:38 45.80040 24.89276 40048 ft 517 kts 127°
2026-05-09 13:38 45.75855 24.97576 40047 ft 515 kts 127°
2026-05-09 13:39 45.71656 25.05877 40027 ft 514 kts 128°
2026-05-09 13:39 45.67446 25.14179 40061 ft 515 kts 128°
2026-05-09 13:40 45.63219 25.22486 40036 ft 516 kts 128°
2026-05-09 13:40 45.59019 25.30718 40029 ft 515 kts 128°
2026-05-09 13:41 45.54779 25.39003 40032 ft 515 kts 128°
2026-05-09 13:41 45.50543 25.47258 40020 ft 515 kts 128°
2026-05-09 13:42 45.46331 25.55443 40030 ft 514 kts 128°
2026-05-09 13:42 45.42091 25.63657 40028 ft 513 kts 128°
2026-05-09 13:43 45.37847 25.71857 40029 ft 513 kts 128°
2026-05-09 13:43 45.33636 25.79967 40042 ft 513 kts 128°
2026-05-09 13:44 45.29376 25.88148 40040 ft 514 kts 128°
2026-05-09 13:44 45.25113 25.96316 40037 ft 514 kts 128°
2026-05-09 13:45 45.20838 26.04482 40035 ft 514 kts 128°
2026-05-09 13:45 45.16587 26.12578 40035 ft 515 kts 128°
2026-05-09 13:46 45.13022 26.19351 40027 ft 515 kts 128°
2026-05-09 13:46 45.08728 26.27490 40034 ft 515 kts 128°
2026-05-09 13:47 45.04430 26.35616 40026 ft 515 kts 128°
2026-05-09 13:47 45.00158 26.43669 40027 ft 514 kts 128°
2026-05-09 13:48 44.95859 26.51782 40026 ft 514 kts 128°
2026-05-09 13:48 44.91573 26.59884 40024 ft 514 kts 128°
2026-05-09 13:49 44.87308 26.67932 40022 ft 514 kts 128°
2026-05-09 13:49 44.83011 26.76015 40018 ft 513 kts 128°
2026-05-09 13:50 44.78725 26.84052 40016 ft 513 kts 128°
2026-05-09 13:50 44.74462 26.92024 40013 ft 512 kts 128°
2026-05-09 13:51 44.70165 27.00034 40014 ft 512 kts 128°
2026-05-09 13:51 44.65872 27.08018 40010 ft 512 kts 128°
2026-05-09 13:52 44.61572 27.15990 40008 ft 512 kts 128°
2026-05-09 13:52 44.57268 27.23949 40005 ft 512 kts 128°
2026-05-09 13:53 44.52949 27.31914 40015 ft 512 kts 128°
2026-05-09 13:53 44.48654 27.39811 39998 ft 513 kts 128°
2026-05-09 13:54 44.44329 27.47743 40004 ft 512 kts 128°
2026-05-09 13:54 44.39998 27.55664 40004 ft 512 kts 129°
2026-05-09 13:55 44.35657 27.63583 40004 ft 512 kts 129°
2026-05-09 13:55 44.31319 27.71472 40006 ft 511 kts 129°
2026-05-09 13:56 44.27004 27.79299 40003 ft 511 kts 129°
2026-05-09 13:56 44.22659 27.87160 40006 ft 511 kts 129°
2026-05-09 13:57 44.18312 27.95002 40014 ft 511 kts 129°
2026-05-09 13:57 44.13978 28.02802 40006 ft 511 kts 129°
2026-05-09 13:58 44.09615 28.10631 40007 ft 510 kts 129°
2026-05-09 13:58 44.05252 28.18439 40012 ft 510 kts 129°
2026-05-09 13:59 44.00909 28.26191 40019 ft 510 kts 129°
2026-05-09 13:59 43.96544 28.33962 40017 ft 509 kts 129°
2026-05-09 14:00 43.93652 28.39099 40016 ft 509 kts 129°
2026-05-09 14:00 43.87839 28.49397 40021 ft 509 kts 129°
2026-05-09 14:01 43.83512 28.57042 40024 ft 508 kts 129°
2026-05-09 14:01 43.79136 28.64752 40026 ft 508 kts 129°
2026-05-09 14:02 43.74753 28.72459 40036 ft 508 kts 129°
2026-05-09 14:02 43.70370 28.80143 40034 ft 509 kts 129°
2026-05-09 14:03 43.66134 28.87916 40032 ft 510 kts 127°
2026-05-09 14:03 43.62010 28.95912 40039 ft 510 kts 127°
2026-05-09 14:04 43.57872 29.03912 40037 ft 510 kts 127°
2026-05-09 14:04 43.53731 29.11817 40034 ft 510 kts 127°
2026-05-09 14:05 43.49540 29.19756 40036 ft 510 kts 127°
2026-05-09 14:05 43.45381 29.27609 40041 ft 511 kts 127°
2026-05-09 14:06 43.41192 29.35505 40036 ft 511 kts 127°
2026-05-09 14:06 43.36992 29.43401 40043 ft 511 kts 127°
2026-05-09 14:07 43.32786 29.51290 40040 ft 511 kts 127°
2026-05-09 14:07 43.28577 29.59163 40042 ft 511 kts 128°
2026-05-09 14:08 43.24388 29.66977 40042 ft 511 kts 128°
2026-05-09 14:08 43.20167 29.74829 40045 ft 511 kts 128°
2026-05-09 14:09 43.15946 29.82662 40042 ft 511 kts 128°
2026-05-09 14:09 43.11741 29.90443 40045 ft 511 kts 128°
2026-05-09 14:10 43.05378 30.02181 40049 ft 511 kts 128°
2026-05-09 14:11 43.01135 30.09982 40049 ft 511 kts 128°
2026-05-09 14:11 42.96916 30.17719 40049 ft 511 kts 128°
2026-05-09 14:12 42.92659 30.25506 40052 ft 511 kts 128°
2026-05-09 14:12 42.88393 30.33288 40047 ft 511 kts 128°
2026-05-09 14:13 42.84130 30.41048 40049 ft 511 kts 128°
2026-05-09 14:14 42.72718 30.70219 40067 ft 510 kts 94°
2026-05-09 14:15 42.72421 30.74983 40056 ft 511 kts 97°
2026-05-09 14:15 42.71479 30.84592 40055 ft 512 kts 99°
2026-05-09 14:16 42.70410 30.94191 40043 ft 513 kts 99°
2026-05-09 14:16 42.69374 31.03743 40048 ft 514 kts 99°
2026-05-09 14:17 42.68363 31.13362 40049 ft 514 kts 99°
2026-05-09 14:17 42.67354 31.22993 40042 ft 514 kts 99°
2026-05-09 14:18 42.66336 31.32627 40043 ft 514 kts 99°
2026-05-09 14:18 42.65307 31.42248 40044 ft 514 kts 99°
2026-05-09 14:19 42.64271 31.51859 40038 ft 514 kts 99°
2026-05-09 14:19 42.63230 31.61424 40049 ft 514 kts 99°
2026-05-09 14:20 42.62177 31.71037 40046 ft 513 kts 99°
2026-05-09 14:20 42.61116 31.80636 40046 ft 513 kts 99°
2026-05-09 14:21 42.59521 31.94937 40042 ft 512 kts 99°
2026-05-09 14:21 42.58441 32.04523 40043 ft 512 kts 99°
2026-05-09 14:22 42.57363 32.14021 40045 ft 511 kts 99°
2026-05-09 14:22 42.56272 32.23559 40041 ft 511 kts 99°
2026-05-09 14:23 42.55173 32.33101 40035 ft 511 kts 99°
2026-05-09 14:23 42.54067 32.42624 40043 ft 510 kts 99°
2026-05-09 14:24 42.52960 32.52089 40041 ft 510 kts 99°
2026-05-09 14:24 42.51840 32.61592 40045 ft 510 kts 99°
2026-05-09 14:25 42.50712 32.71095 40035 ft 510 kts 99°
2026-05-09 14:25 42.49576 32.80593 40035 ft 510 kts 100°
2026-05-09 14:26 42.48625 32.88487 40036 ft 510 kts 100°
2026-05-09 14:26 42.47475 32.97985 40033 ft 510 kts 100°
2026-05-09 14:27 42.46316 33.07474 40039 ft 511 kts 100°
2026-05-09 14:27 42.45149 33.16972 40041 ft 511 kts 100°
2026-05-09 14:28 42.43859 33.27388 40036 ft 511 kts 100°
2026-05-09 14:28 42.42681 33.36830 40035 ft 511 kts 100°
2026-05-09 14:29 42.41490 33.46314 40090 ft 509 kts 100°
2026-05-09 14:29 42.40898 33.51005 40525 ft 499 kts 100°
2026-05-09 14:29 42.40316 33.55596 40958 ft 491 kts 100°
2026-05-09 14:30 42.39152 33.64738 41050 ft 493 kts 100°
2026-05-09 14:30 42.37981 33.73865 41043 ft 497 kts 100°
2026-05-09 14:31 42.36787 33.83124 41046 ft 499 kts 100°
2026-05-09 14:31 42.35589 33.92351 41048 ft 501 kts 100°
2026-05-09 14:32 42.34372 34.01665 41045 ft 503 kts 100°
2026-05-09 14:32 42.33143 34.11005 41048 ft 505 kts 100°
2026-05-09 14:33 42.31901 34.20377 41055 ft 506 kts 101°
2026-05-09 14:33 42.30658 34.29704 41049 ft 507 kts 101°
2026-05-09 14:34 42.29397 34.39105 41055 ft 508 kts 101°
2026-05-09 14:34 42.28127 34.48510 41056 ft 509 kts 101°
2026-05-09 14:35 42.26855 34.57868 41051 ft 509 kts 101°
2026-05-09 14:35 42.25566 34.67291 41059 ft 510 kts 101°
2026-05-09 14:36 42.24267 34.76722 41064 ft 510 kts 101°
2026-05-09 14:36 42.22964 34.86133 41076 ft 510 kts 101°
2026-05-09 14:37 42.21651 34.95550 41087 ft 511 kts 101°
2026-05-09 14:37 42.20336 35.04924 41091 ft 511 kts 101°
2026-05-09 14:38 42.19005 35.14353 41081 ft 511 kts 101°
2026-05-09 14:38 42.17666 35.23776 41085 ft 511 kts 101°
2026-05-09 14:39 42.16328 35.33139 41082 ft 511 kts 101°
2026-05-09 14:39 42.14974 35.42556 41072 ft 511 kts 101°
2026-05-09 14:40 42.13613 35.51967 41062 ft 511 kts 101°
2026-05-09 14:40 42.12241 35.61392 41062 ft 511 kts 101°
2026-05-09 14:41 42.10862 35.70807 41065 ft 512 kts 101°
2026-05-09 14:41 42.09478 35.80203 41061 ft 512 kts 101°
2026-05-09 14:42 42.08093 35.89553 41060 ft 512 kts 101°
2026-05-09 14:42 42.06691 35.98957 41067 ft 512 kts 101°
2026-05-09 14:43 42.05519 36.06780 41068 ft 512 kts 101°
2026-05-09 14:43 42.04099 36.16199 41069 ft 512 kts 101°
2026-05-09 14:44 42.02675 36.25596 41073 ft 513 kts 102°
2026-05-09 14:44 42.01240 36.35014 41072 ft 513 kts 102°
2026-05-09 14:45 41.99809 36.44348 41072 ft 513 kts 102°
2026-05-09 14:45 41.98356 36.53767 41074 ft 513 kts 102°
2026-05-09 14:46 41.96897 36.63178 41072 ft 513 kts 102°
2026-05-09 14:46 41.95439 36.72530 41069 ft 514 kts 102°
2026-05-09 14:47 41.93964 36.81940 41075 ft 514 kts 102°
2026-05-09 14:47 41.92489 36.91307 41067 ft 514 kts 102°
2026-05-09 14:48 41.91000 37.00714 41073 ft 514 kts 102°
2026-05-09 14:48 41.90027 37.10214 41068 ft 514 kts 90°
2026-05-09 14:49 41.90017 37.19820 41078 ft 514 kts 89°
2026-05-09 14:49 41.90000 37.29386 41076 ft 514 kts 90°
2026-05-09 14:50 41.89886 37.39008 41075 ft 515 kts 91°
2026-05-09 14:50 41.89721 37.48625 41081 ft 515 kts 91°
2026-05-09 14:51 41.89542 37.58267 41079 ft 516 kts 91°
2026-05-09 14:51 41.89361 37.67847 41079 ft 516 kts 91°
2026-05-09 14:52 41.89175 37.77486 41085 ft 516 kts 91°
2026-05-09 14:52 41.88981 37.87137 41088 ft 516 kts 91°
2026-05-09 14:53 41.88781 37.96728 41089 ft 517 kts 91°
2026-05-09 14:53 41.88570 38.06384 41085 ft 517 kts 91°
2026-05-09 14:54 41.88351 38.16056 41089 ft 517 kts 91°
2026-05-09 14:54 41.88125 38.25698 41086 ft 517 kts 91°
2026-05-09 14:55 41.87890 38.35368 41088 ft 518 kts 91°
2026-05-09 14:55 41.87647 38.45034 41082 ft 518 kts 91°
2026-05-09 14:56 41.87395 38.54698 41083 ft 518 kts 91°
2026-05-09 14:56 41.87138 38.64303 41088 ft 518 kts 92°
2026-05-09 14:57 41.86870 38.73984 41085 ft 519 kts 92°
2026-05-09 14:57 41.86594 38.83671 41091 ft 519 kts 92°
2026-05-09 14:58 41.86309 38.93350 41086 ft 519 kts 92°
2026-05-09 14:58 41.86016 39.03049 41092 ft 520 kts 92°
2026-05-09 14:59 41.85716 39.12738 41091 ft 520 kts 92°
2026-05-09 14:59 41.85406 39.22446 41083 ft 520 kts 92°
2026-05-09 15:00 41.85089 39.32155 41088 ft 520 kts 92°
2026-05-09 15:00 41.84765 39.41786 41079 ft 520 kts 92°
2026-05-09 15:01 41.84261 39.56355 41079 ft 521 kts 92°
2026-05-09 15:02 41.83914 39.66072 41089 ft 521 kts 92°
2026-05-09 15:02 41.83559 39.75791 41084 ft 521 kts 92°
2026-05-09 15:03 41.83196 39.85508 41090 ft 521 kts 92°
2026-05-09 15:03 41.82825 39.95220 41088 ft 521 kts 92°
2026-05-09 15:04 41.82448 40.04876 41089 ft 522 kts 92°
2026-05-09 15:06 41.80850 40.43756 41089 ft 522 kts 93°
2026-05-09 15:06 41.80433 40.53410 41082 ft 522 kts 93°
2026-05-09 15:07 41.80008 40.63127 41021 ft 523 kts 93°
2026-05-09 15:07 41.79787 40.68015 40578 ft 528 kts 93°
2026-05-09 15:07 41.79552 40.72926 40192 ft 523 kts 93°
2026-05-09 15:07 41.79312 40.77743 40317 ft 511 kts 94°
2026-05-09 15:08 41.79072 40.82485 40533 ft 508 kts 94°
2026-05-09 15:08 41.78597 40.91871 40933 ft 502 kts 94°
2026-05-09 15:08 41.78360 40.96547 41010 ft 503 kts 94°
2026-05-09 15:10 41.76386 41.34331 41099 ft 514 kts 94°
2026-05-09 15:11 41.75866 41.43909 41111 ft 516 kts 94°
2026-05-09 15:11 41.75339 41.53457 41097 ft 517 kts 94°
2026-05-09 15:12 41.74799 41.63094 41106 ft 519 kts 94°
2026-05-09 15:12 41.74251 41.72740 41113 ft 520 kts 94°
2026-05-09 15:13 41.73692 41.82423 41113 ft 521 kts 94°
2026-05-09 15:13 41.73130 41.92049 41092 ft 522 kts 94°
2026-05-09 15:14 41.72556 42.01752 41117 ft 523 kts 94°
2026-05-09 15:14 41.71972 42.11465 41112 ft 523 kts 94°
2026-05-09 15:15 41.71480 42.19596 41121 ft 523 kts 94°
2026-05-09 15:15 41.70792 42.30906 41117 ft 524 kts 94°
2026-05-09 15:16 41.70195 42.40630 41143 ft 524 kts 95°
2026-05-09 15:16 41.69587 42.50365 41139 ft 524 kts 95°
2026-05-09 15:17 41.68976 42.60033 41133 ft 525 kts 95°
2026-05-09 15:17 41.68353 42.69768 41136 ft 525 kts 95°
2026-05-09 15:18 41.67723 42.79515 41140 ft 525 kts 95°
2026-05-09 15:18 41.66994 42.89261 41131 ft 526 kts 98°
2026-05-09 15:19 41.65737 42.98910 41130 ft 526 kts 101°
2026-05-09 15:19 41.64358 43.08506 41141 ft 526 kts 101°
2026-05-09 15:20 41.62378 43.22883 41149 ft 526 kts 100°
2026-05-09 15:21 41.61086 43.32507 41148 ft 526 kts 101°
2026-05-09 15:21 41.59774 43.42120 41152 ft 524 kts 101°
2026-05-09 15:22 41.58686 43.50061 41156 ft 522 kts 101°
2026-05-09 15:22 41.57378 43.59599 41176 ft 521 kts 101°
2026-05-09 15:23 41.56067 43.69113 41185 ft 520 kts 101°
2026-05-09 15:23 41.54746 43.78615 41186 ft 519 kts 101°
2026-05-09 15:24 41.53419 43.88095 41213 ft 519 kts 101°
2026-05-09 15:24 41.52093 43.97513 41185 ft 518 kts 101°
2026-05-09 15:25 41.50754 44.06971 41188 ft 517 kts 101°
2026-05-09 15:25 41.49409 44.16407 41185 ft 517 kts 101°
2026-05-09 15:26 41.47388 44.30472 41174 ft 516 kts 102°
2026-05-09 15:26 41.46028 44.39871 41174 ft 515 kts 102°
2026-05-09 15:27 41.44661 44.49264 41164 ft 515 kts 102°
2026-05-09 15:27 41.43287 44.58648 41162 ft 515 kts 102°
2026-05-09 15:28 41.41909 44.68004 41151 ft 515 kts 102°
2026-05-09 15:28 41.40530 44.77319 41143 ft 515 kts 102°
2026-05-09 15:29 41.39136 44.86682 41138 ft 515 kts 102°
2026-05-09 15:29 41.37739 44.96032 41135 ft 515 kts 102°
2026-05-09 15:30 41.36333 45.05389 41134 ft 515 kts 102°
2026-05-09 15:30 41.34513 45.14591 41126 ft 513 kts 110°
2026-05-09 15:31 41.32101 45.23471 41125 ft 513 kts 111°
2026-05-09 15:31 41.29693 45.32424 41138 ft 513 kts 110°
2026-05-09 15:32 41.27366 45.41415 41120 ft 514 kts 110°
2026-05-09 15:32 41.25053 45.50413 41116 ft 514 kts 110°
2026-05-09 15:33 41.22727 45.59407 41113 ft 514 kts 110°
2026-05-09 15:33 41.20393 45.68343 41128 ft 514 kts 110°
2026-05-09 15:34 41.18010 45.77306 41114 ft 515 kts 111°
2026-05-09 15:34 41.15620 45.86267 41114 ft 515 kts 111°
2026-05-09 15:35 41.13233 45.95228 41113 ft 515 kts 111°
2026-05-09 15:35 41.10841 46.04184 41119 ft 515 kts 111°
2026-05-09 15:36 41.08441 46.13138 41124 ft 515 kts 111°
2026-05-09 15:36 41.06041 46.22076 41111 ft 515 kts 111°
2026-05-09 15:37 41.03629 46.31013 41126 ft 515 kts 111°
2026-05-09 15:37 41.01249 46.39893 41117 ft 515 kts 110°
2026-05-09 15:38 40.98863 46.48837 41099 ft 515 kts 110°
2026-05-09 15:38 40.96472 46.57774 41117 ft 515 kts 111°
2026-05-09 15:39 40.94068 46.66728 41112 ft 515 kts 111°
2026-05-09 15:39 40.91666 46.75648 41120 ft 515 kts 111°
2026-05-09 15:40 40.89479 46.84599 41102 ft 515 kts 101°
2026-05-09 15:40 40.88854 46.94027 41128 ft 514 kts 94°
2026-05-09 15:41 40.88341 47.03464 41123 ft 515 kts 95°
2026-05-09 15:41 40.87677 47.12905 41119 ft 515 kts 96°
2026-05-09 15:42 40.86963 47.22338 41122 ft 516 kts 96°
2026-05-09 15:42 40.86256 47.31717 41129 ft 516 kts 96°
2026-05-09 15:43 40.85549 47.41153 41139 ft 516 kts 96°
2026-05-09 15:43 40.84833 47.50579 41137 ft 516 kts 96°
2026-05-09 15:44 40.84186 47.60034 41133 ft 516 kts 95°
2026-05-09 15:44 40.83619 47.69492 41134 ft 516 kts 95°
2026-05-09 15:45 40.83046 47.78964 41129 ft 516 kts 95°
2026-05-09 15:45 40.82453 47.88415 41140 ft 517 kts 95°
2026-05-09 15:46 40.81844 47.97882 41139 ft 517 kts 95°
2026-05-09 15:46 40.81231 48.07285 41156 ft 517 kts 95°
2026-05-09 15:47 40.80607 48.16747 41158 ft 517 kts 95°
2026-05-09 15:47 40.79976 48.26202 41169 ft 517 kts 96°
2026-05-09 15:48 40.79336 48.35680 41167 ft 517 kts 96°
2026-05-09 15:48 40.78692 48.45099 41160 ft 517 kts 96°
2026-05-09 15:49 40.78037 48.54581 41158 ft 517 kts 96°
2026-05-09 15:49 40.77378 48.63988 41151 ft 517 kts 96°
2026-05-09 15:50 40.76709 48.73442 41162 ft 517 kts 96°
2026-05-09 15:50 40.76031 48.82904 41147 ft 517 kts 96°
2026-05-09 15:51 40.75348 48.92356 41129 ft 517 kts 96°
2026-05-09 15:51 40.74656 49.01808 41138 ft 517 kts 96°
2026-05-09 15:52 40.73611 49.15966 41124 ft 517 kts 96°
2026-05-09 15:53 40.72903 49.25352 41114 ft 517 kts 97°
2026-05-09 15:53 40.71850 49.34727 41115 ft 517 kts 101°
2026-05-09 15:54 40.70665 49.44078 41105 ft 516 kts 100°
2026-05-09 15:54 40.69560 49.53443 41113 ft 516 kts 100°
2026-05-09 15:55 40.68433 49.62738 41104 ft 516 kts 100°
2026-05-09 15:55 40.67283 49.72094 41104 ft 516 kts 100°
2026-05-09 15:56 40.66132 49.81452 41102 ft 516 kts 101°
2026-05-09 15:56 40.64986 49.90746 41104 ft 516 kts 101°
2026-05-09 15:57 40.63826 50.00092 41101 ft 516 kts 101°
2026-05-09 15:57 40.62659 50.09426 41107 ft 516 kts 101°
2026-05-09 15:58 40.61484 50.18767 41106 ft 516 kts 101°
2026-05-09 15:58 40.60301 50.28102 41097 ft 516 kts 101°
2026-05-09 15:59 40.59112 50.37426 41105 ft 517 kts 101°
2026-05-09 15:59 40.57922 50.46696 41111 ft 517 kts 101°
2026-05-09 16:00 40.56716 50.56035 41113 ft 517 kts 101°
2026-05-09 16:00 40.55501 50.65380 41112 ft 517 kts 101°
2026-05-09 16:01 40.54290 50.74655 41115 ft 517 kts 102°
2026-05-09 16:01 40.53065 50.83994 41113 ft 518 kts 102°
2026-05-09 16:02 40.52039 50.91751 41116 ft 518 kts 102°
2026-05-09 16:02 40.50669 51.05822 41125 ft 519 kts 98°
2026-05-09 16:03 40.49878 51.15285 41124 ft 520 kts 98°
2026-05-09 16:03 40.48891 51.26264 41125 ft 520 kts 99°
2026-05-09 16:04 40.48161 51.34133 41126 ft 521 kts 99°
2026-05-09 16:04 40.47285 51.43582 41125 ft 521 kts 99°
2026-05-09 16:05 40.46290 51.53011 41125 ft 520 kts 104°
2026-05-09 16:05 40.44584 51.62253 41119 ft 519 kts 107°
2026-05-09 16:06 40.42763 51.71429 41128 ft 519 kts 107°
2026-05-09 16:06 40.41021 51.80577 41128 ft 520 kts 107°
2026-05-09 16:07 40.39308 51.89818 41129 ft 520 kts 107°
2026-05-09 16:07 40.37593 51.99068 41126 ft 521 kts 107°
2026-05-09 16:08 40.35869 52.08289 41128 ft 521 kts 107°
2026-05-09 16:08 40.34138 52.17482 41125 ft 521 kts 107°
2026-05-09 16:09 40.32392 52.26720 41133 ft 521 kts 107°
2026-05-09 16:09 40.30640 52.35948 41131 ft 522 kts 107°
2026-05-09 16:10 40.28880 52.45183 41137 ft 522 kts 108°
2026-05-09 16:10 40.27116 52.54415 41136 ft 522 kts 108°
2026-05-09 16:11 40.25347 52.63594 41142 ft 522 kts 108°
2026-05-09 16:11 40.23562 52.72815 41146 ft 523 kts 108°
2026-05-09 16:12 40.21772 52.82065 41151 ft 523 kts 108°
2026-05-09 16:12 40.19981 52.91304 41152 ft 523 kts 108°
2026-05-09 16:13 40.18189 53.00501 41160 ft 524 kts 108°
2026-05-09 16:13 40.16383 53.09730 41149 ft 524 kts 109°
2026-05-09 16:14 40.14564 53.18981 41160 ft 525 kts 109°
2026-05-09 16:14 40.12737 53.28230 41155 ft 525 kts 109°
2026-05-09 16:15 40.10914 53.37419 41147 ft 526 kts 109°
2026-05-09 16:15 40.09072 53.46663 41136 ft 526 kts 109°
2026-05-09 16:16 40.07217 53.55925 41130 ft 526 kts 109°
2026-05-09 16:16 40.05353 53.65192 41124 ft 527 kts 109°
2026-05-09 16:17 40.03480 53.74464 41128 ft 527 kts 110°
2026-05-09 16:17 40.01612 53.83672 41126 ft 528 kts 110°
2026-05-09 16:18 39.99722 53.92945 41120 ft 528 kts 110°
2026-05-09 16:18 39.97823 54.02225 41118 ft 529 kts 110°
2026-05-09 16:19 39.95927 54.11453 41115 ft 529 kts 110°
2026-05-09 16:19 39.94012 54.20730 41115 ft 529 kts 110°
2026-05-09 16:20 39.92092 54.30001 41118 ft 530 kts 110°
2026-05-09 16:20 39.90163 54.39296 41109 ft 530 kts 110°
2026-05-09 16:21 39.88230 54.48509 41135 ft 530 kts 111°
2026-05-09 16:21 39.86248 54.57752 41120 ft 530 kts 111°
2026-05-09 16:22 39.84261 54.67019 41122 ft 530 kts 111°
2026-05-09 16:22 39.82277 54.76269 41111 ft 530 kts 111°
2026-05-09 16:23 39.80285 54.85523 41114 ft 531 kts 111°
2026-05-09 16:23 39.78296 54.94776 41105 ft 531 kts 111°
2026-05-09 16:24 39.76320 55.03967 41110 ft 531 kts 111°
2026-05-09 16:24 39.74323 55.13216 41102 ft 532 kts 111°
2026-05-09 16:25 39.72313 55.22485 41095 ft 532 kts 112°
2026-05-09 16:25 39.70297 55.31741 41092 ft 532 kts 112°
2026-05-09 16:26 39.68269 55.41013 41095 ft 533 kts 112°
2026-05-09 16:26 39.66250 55.50204 41088 ft 533 kts 112°
2026-05-09 16:27 39.64209 55.59464 41092 ft 533 kts 112°
2026-05-09 16:27 39.62160 55.68723 41092 ft 534 kts 112°
2026-05-09 16:28 39.60103 55.77992 41090 ft 534 kts 112°
2026-05-09 16:28 39.58036 55.87271 41086 ft 535 kts 112°
2026-05-09 16:29 39.55616 55.96311 41094 ft 528 kts 119°
2026-05-09 16:29 39.52731 56.05073 41085 ft 528 kts 121°
2026-05-09 16:30 39.49841 56.13792 41106 ft 529 kts 120°
2026-05-09 16:30 39.46991 56.22609 41091 ft 530 kts 120°
2026-05-09 16:31 39.44168 56.31446 41094 ft 531 kts 120°
2026-05-09 16:31 39.41363 56.40214 41091 ft 531 kts 120°
2026-05-09 16:32 39.38999 56.47566 41086 ft 531 kts 120°
2026-05-09 16:32 39.35669 56.57877 41080 ft 532 kts 120°
2026-05-09 16:33 39.32811 56.66691 41090 ft 532 kts 120°
2026-05-09 16:33 39.29960 56.75460 41088 ft 532 kts 120°
2026-05-09 16:34 39.27084 56.84279 41090 ft 532 kts 120°
2026-05-09 16:34 39.24200 56.93092 41098 ft 533 kts 120°
2026-05-09 16:35 39.21308 57.01903 41092 ft 533 kts 121°
2026-05-09 16:35 39.18407 57.10715 41083 ft 534 kts 121°
2026-05-09 16:36 39.12591 57.28301 41086 ft 534 kts 121°
2026-05-09 16:37 39.09663 57.37114 41091 ft 535 kts 121°
2026-05-09 16:37 39.06741 57.45878 41083 ft 536 kts 121°
2026-05-09 16:38 39.03790 57.54704 41085 ft 536 kts 121°
2026-05-09 16:38 39.00837 57.63510 41083 ft 537 kts 121°
2026-05-09 16:39 38.97867 57.72338 41080 ft 537 kts 121°
2026-05-09 16:39 38.94893 57.81154 41079 ft 538 kts 121°
2026-05-09 16:40 38.91905 57.89980 41087 ft 538 kts 121°
2026-05-09 16:42 38.79879 58.25240 41087 ft 541 kts 121°
2026-05-09 16:42 38.77352 58.32595 41080 ft 542 kts 121°
2026-05-09 16:43 38.74305 58.41440 41088 ft 542 kts 121°
2026-05-09 16:43 38.71249 58.50284 41088 ft 543 kts 121°
2026-05-09 16:44 38.68196 58.59093 41084 ft 544 kts 121°
2026-05-09 16:44 38.65120 58.67944 41081 ft 544 kts 121°
2026-05-09 16:45 38.62035 58.76796 41080 ft 545 kts 121°
2026-05-09 16:45 38.60489 58.81220 41283 ft 545 kts 121°
2026-05-09 16:45 38.58940 58.85652 41216 ft 544 kts 122°
2026-05-09 16:46 38.55861 58.94446 41091 ft 538 kts 123°
2026-05-09 16:46 38.52818 59.03102 41082 ft 535 kts 123°
2026-05-09 16:47 38.49769 59.11757 41080 ft 533 kts 123°
2026-05-09 16:47 38.46785 59.20460 41082 ft 536 kts 121°
2026-05-09 16:48 38.44110 59.29306 41089 ft 538 kts 119°
2026-05-09 16:48 38.41484 59.38251 41093 ft 538 kts 119°
2026-05-09 16:49 38.38847 59.47086 41092 ft 538 kts 120°
2026-05-09 16:50 38.34790 59.60439 41098 ft 538 kts 120°
2026-05-09 16:50 38.32069 59.69337 41099 ft 538 kts 120°
2026-05-09 16:51 38.29349 59.78218 41098 ft 539 kts 120°
2026-05-09 16:51 38.26619 59.87107 41102 ft 539 kts 120°
2026-05-09 16:52 38.23898 59.95940 41099 ft 539 kts 120°
2026-05-09 16:52 38.21155 60.04816 41101 ft 539 kts 120°
2026-05-09 16:53 38.18400 60.13699 41106 ft 539 kts 120°
2026-05-09 16:53 38.15640 60.22572 41108 ft 539 kts 120°
2026-05-09 16:54 38.12863 60.31469 41109 ft 540 kts 121°
2026-05-09 16:54 38.10091 60.40325 41114 ft 540 kts 121°
2026-05-09 16:55 38.07327 60.49126 41115 ft 540 kts 121°
2026-05-09 16:55 38.04537 60.57986 41113 ft 540 kts 121°
2026-05-09 16:56 38.01737 60.66846 41116 ft 540 kts 121°
2026-05-09 16:56 37.98931 60.75697 41109 ft 540 kts 121°
2026-05-09 16:57 37.96142 60.84470 41113 ft 540 kts 121°
2026-05-09 16:57 37.93329 60.93290 41108 ft 540 kts 121°
2026-05-09 16:58 37.90500 61.02130 41108 ft 540 kts 121°
2026-05-09 16:58 37.87669 61.10952 41100 ft 540 kts 121°
2026-05-09 16:59 37.84845 61.19726 41098 ft 540 kts 121°
2026-05-09 16:59 37.82000 61.28536 41098 ft 540 kts 121°
2026-05-09 17:00 37.79150 61.37338 41100 ft 540 kts 121°
2026-05-09 17:00 37.76294 61.46130 41089 ft 540 kts 121°
2026-05-09 17:01 37.73435 61.54908 41090 ft 540 kts 121°
2026-05-09 17:01 37.70568 61.63685 41091 ft 540 kts 121°
2026-05-09 17:02 37.67686 61.72483 41102 ft 540 kts 121°
2026-05-09 17:02 37.64827 61.81200 41088 ft 540 kts 121°
2026-05-09 17:03 37.61930 61.89961 41091 ft 539 kts 123°
2026-05-09 17:05 37.47929 62.22866 41079 ft 533 kts 128°
2026-05-09 17:05 37.44437 62.31106 41070 ft 533 kts 128°
2026-05-09 17:06 37.40960 62.39288 41069 ft 534 kts 128°
2026-05-09 17:06 37.37441 62.47532 41068 ft 534 kts 128°
2026-05-09 17:07 37.33911 62.55775 41065 ft 534 kts 128°
2026-05-09 17:07 37.30387 62.63982 41058 ft 534 kts 128°
2026-05-09 17:08 37.26871 62.72153 41050 ft 534 kts 128°
2026-05-09 17:08 37.21553 62.84471 41066 ft 535 kts 128°
2026-05-09 17:09 37.17990 62.92695 41056 ft 536 kts 128°
2026-05-09 17:09 37.14421 63.00915 41049 ft 536 kts 128°
2026-05-09 17:10 37.10869 63.09074 41048 ft 536 kts 128°
2026-05-09 17:10 37.07276 63.17307 41049 ft 537 kts 128°
2026-05-09 17:11 37.03681 63.25525 41043 ft 538 kts 128°
2026-05-09 17:11 37.00080 63.33736 41037 ft 538 kts 128°
2026-05-09 17:12 36.96487 63.41906 41037 ft 539 kts 128°
2026-05-09 17:12 36.92867 63.50119 41036 ft 540 kts 128°
2026-05-09 17:13 36.89225 63.58359 41032 ft 541 kts 128°
2026-05-09 17:13 36.85573 63.66602 41033 ft 541 kts 128°
2026-05-09 17:14 36.81938 63.74788 41032 ft 542 kts 128°
2026-05-09 17:14 36.78267 63.83031 41026 ft 543 kts 128°
2026-05-09 17:15 36.74592 63.91266 41021 ft 543 kts 128°
2026-05-09 17:15 36.70905 63.99506 41019 ft 543 kts 128°
2026-05-09 17:17 36.56087 64.32412 41004 ft 545 kts 128°
2026-05-09 17:18 36.52360 64.40639 40993 ft 546 kts 128°
2026-05-09 17:18 36.48645 64.48818 40988 ft 546 kts 128°
2026-05-09 17:19 36.44894 64.57055 40991 ft 547 kts 128°
2026-05-09 17:19 36.41140 64.65279 40996 ft 547 kts 128°
2026-05-09 17:20 36.37374 64.73511 40980 ft 547 kts 128°
2026-05-09 17:20 36.33635 64.81663 40982 ft 547 kts 128°
2026-05-09 17:21 36.29855 64.89883 40986 ft 547 kts 128°
2026-05-09 17:21 36.26708 64.96710 40991 ft 548 kts 128°
2026-05-09 17:22 36.22307 65.06236 41025 ft 548 kts 128°
2026-05-09 17:22 36.19127 65.13102 41029 ft 548 kts 128°
2026-05-09 17:23 36.15347 65.21245 41039 ft 548 kts 128°
2026-05-09 17:23 36.11531 65.29446 41040 ft 549 kts 128°
2026-05-09 17:25 36.00079 65.53941 41081 ft 548 kts 128°
2026-05-09 17:25 35.96239 65.62114 41086 ft 549 kts 128°
2026-05-09 17:26 35.92418 65.70229 41090 ft 550 kts 128°
2026-05-09 17:26 35.88559 65.78402 41091 ft 550 kts 128°
2026-05-09 17:27 35.84694 65.86568 41093 ft 551 kts 128°
2026-05-09 17:27 35.80828 65.94715 41111 ft 550 kts 127°
2026-05-09 17:28 35.76976 66.02821 41093 ft 550 kts 127°
2026-05-09 17:28 35.73097 66.10960 41095 ft 551 kts 127°
2026-05-09 17:29 35.69230 66.19055 41111 ft 551 kts 127°
2026-05-09 17:29 35.65324 66.27212 41107 ft 553 kts 127°
2026-05-09 17:30 35.61404 66.35375 41105 ft 553 kts 127°
2026-05-09 17:30 35.57488 66.43516 41125 ft 553 kts 127°
2026-05-09 17:31 35.53574 66.51631 41126 ft 552 kts 127°
2026-05-09 17:32 35.43810 66.71797 41159 ft 549 kts 127°
2026-05-09 17:33 35.39898 66.79847 41143 ft 548 kts 128°
2026-05-09 17:33 35.35992 66.87861 41163 ft 548 kts 127°
2026-05-09 17:34 35.32074 66.95888 41171 ft 549 kts 127°
2026-05-09 17:35 35.18376 67.24031 41214 ft 550 kts 126°
2026-05-09 17:36 35.14505 67.32133 41197 ft 552 kts 126°
2026-05-09 17:36 35.10624 67.40223 41198 ft 550 kts 126°
2026-05-09 17:37 35.06772 67.48227 41214 ft 548 kts 126°
2026-05-09 17:37 35.02891 67.56257 41190 ft 549 kts 126°
2026-05-09 17:38 34.98993 67.64304 41182 ft 550 kts 126°
2026-05-09 17:39 34.93137 67.76364 41179 ft 552 kts 126°
2026-05-09 17:39 34.89242 67.84362 41181 ft 552 kts 126°
2026-05-09 17:40 34.85305 67.92429 41180 ft 554 kts 126°
2026-05-09 17:40 34.81359 68.00496 41182 ft 554 kts 126°
2026-05-09 17:41 34.77396 68.08580 41177 ft 555 kts 126°
2026-05-09 17:41 34.73454 68.16601 41176 ft 555 kts 125°
2026-05-09 17:42 34.69479 68.24671 41166 ft 555 kts 125°
2026-05-09 17:42 34.65511 68.32708 41155 ft 555 kts 125°
2026-05-09 17:43 34.61559 68.40696 41139 ft 555 kts 125°
2026-05-09 17:43 34.57576 68.48726 41128 ft 555 kts 125°
2026-05-09 17:44 34.53581 68.56763 41104 ft 555 kts 125°
2026-05-09 17:44 34.49585 68.64783 41082 ft 555 kts 125°
2026-05-09 17:45 34.45579 68.72807 41056 ft 555 kts 125°
2026-05-09 17:45 34.41591 68.80776 41028 ft 556 kts 125°
2026-05-09 17:46 34.37573 68.88789 41008 ft 556 kts 125°
2026-05-09 17:46 34.33551 68.96789 40984 ft 556 kts 125°
2026-05-09 17:47 34.29519 69.04796 40961 ft 556 kts 125°
2026-05-09 17:47 34.25514 69.12729 40968 ft 556 kts 125°
2026-05-09 17:48 34.21477 69.20712 40983 ft 556 kts 125°
2026-05-09 17:48 34.17431 69.28698 40980 ft 556 kts 125°
2026-05-09 17:49 34.13378 69.36688 41012 ft 556 kts 125°
2026-05-09 17:49 34.09587 69.44794 41030 ft 559 kts 118°
2026-05-09 17:50 34.06363 69.53333 41035 ft 559 kts 116°
2026-05-09 17:50 34.01598 69.66102 41051 ft 558 kts 117°
2026-05-09 17:51 33.98326 69.74595 41045 ft 558 kts 117°
2026-05-09 17:51 33.95029 69.83067 41056 ft 558 kts 118°
2026-05-09 17:52 33.91723 69.91545 41036 ft 556 kts 117°
2026-05-09 17:52 33.88434 69.99978 41017 ft 557 kts 117°
2026-05-09 17:53 33.85153 70.08380 41012 ft 557 kts 117°
2026-05-09 17:53 33.81846 70.16821 41014 ft 557 kts 117°
2026-05-09 17:54 33.78527 70.25272 40998 ft 558 kts 117°
2026-05-09 17:54 33.75193 70.33736 40623 ft 564 kts 117°
2026-05-09 17:55 33.73537 70.37936 40220 ft 560 kts 117°
2026-05-09 17:55 33.71876 70.42145 39841 ft 556 kts 117°
2026-05-09 17:55 33.70222 70.46329 39465 ft 554 kts 117°
2026-05-09 17:55 33.68564 70.50518 39108 ft 553 kts 117°
2026-05-09 17:56 33.66903 70.54707 38771 ft 555 kts 117°
2026-05-09 17:56 33.65234 70.58910 38367 ft 560 kts 118°
2026-05-09 17:56 33.63552 70.63142 37930 ft 563 kts 117°
2026-05-09 17:57 33.60182 70.71608 37107 ft 564 kts 117°
2026-05-09 17:57 33.58491 70.75852 36712 ft 563 kts 116°
2026-05-09 17:57 33.56795 70.80105 36293 ft 563 kts 116°
2026-05-09 17:57 33.55102 70.84348 35802 ft 564 kts 116°
2026-05-09 17:58 33.53420 70.88559 35088 ft 569 kts 116°
2026-05-09 17:58 33.51684 70.92900 34378 ft 570 kts 115°
2026-05-09 17:58 33.50023 70.97116 33657 ft 563 kts 111°
2026-05-09 17:58 33.48881 71.01569 32852 ft 555 kts 97°
2026-05-09 17:59 33.48658 71.06128 32113 ft 543 kts 84°
2026-05-09 17:59 33.49085 71.10573 31404 ft 530 kts 77°
2026-05-09 17:59 33.49616 71.14939 30712 ft 526 kts 81°
2026-05-09 17:59 33.49950 71.19294 30008 ft 522 kts 83°
2026-05-09 18:00 33.50184 71.23613 29210 ft 516 kts 84°
2026-05-09 18:00 33.50389 71.27891 28427 ft 511 kts 85°
2026-05-09 18:00 33.50600 71.32115 27653 ft 505 kts 84°
2026-05-09 18:00 33.50832 71.36294 26896 ft 500 kts 84°
2026-05-09 18:01 33.51074 71.40440 26180 ft 495 kts 84°
2026-05-09 18:01 33.51319 71.44487 25472 ft 491 kts 84°
2026-05-09 18:01 33.51571 71.48555 24781 ft 486 kts 84°
2026-05-09 18:01 33.51820 71.52575 24107 ft 482 kts 85°
2026-05-09 18:02 33.52065 71.56569 23439 ft 478 kts 85°
2026-05-09 18:02 33.52305 71.60533 22661 ft 473 kts 85°
2026-05-09 18:02 33.52542 71.64461 21890 ft 469 kts 85°
2026-05-09 18:02 33.52696 71.67045 21393 ft 467 kts 85°
2026-05-09 18:03 33.53001 71.72156 20431 ft 461 kts 85°
2026-05-09 18:03 33.53228 71.75980 19720 ft 457 kts 85°
2026-05-09 18:03 33.53381 71.78553 19257 ft 455 kts 85°
2026-05-09 18:03 33.53600 71.82279 18586 ft 451 kts 85°
2026-05-09 18:04 33.53816 71.86019 17870 ft 448 kts 85°
2026-05-09 18:04 33.54034 71.89733 17128 ft 444 kts 85°
2026-05-09 18:04 33.54252 71.93410 16391 ft 440 kts 85°
2026-05-09 18:04 33.54468 71.97059 15668 ft 437 kts 85°
2026-05-09 18:05 33.54680 72.00680 14966 ft 434 kts 85°
2026-05-09 18:05 33.54863 72.04281 14277 ft 431 kts 87°
2026-05-09 18:05 33.54902 72.07866 13597 ft 428 kts 89°
2026-05-09 18:05 33.54868 72.11377 12860 ft 425 kts 90°
2026-05-09 18:06 33.54821 72.14908 12121 ft 421 kts 90°
2026-05-09 18:06 33.54785 72.18416 11409 ft 418 kts 90°
2026-05-09 18:06 33.54765 72.21893 10863 ft 412 kts 90°
2026-05-09 18:06 33.54754 72.25270 10574 ft 399 kts 90°
2026-05-09 18:07 33.54748 72.28571 10111 ft 393 kts 90°
2026-05-09 18:07 33.54743 72.31788 9939 ft 379 kts 90°
2026-05-09 18:07 33.54736 72.34931 9858 ft 373 kts 90°
2026-05-09 18:07 33.54726 72.37998 9864 ft 372 kts 90°
2026-05-09 18:08 33.54680 72.41104 9861 ft 372 kts 95°
2026-05-09 18:08 33.54047 72.44103 9860 ft 371 kts 114°
2026-05-09 18:08 33.52946 72.46921 9870 ft 377 kts 115°
2026-05-09 18:08 33.51851 72.49803 9874 ft 380 kts 114°
2026-05-09 18:09 33.50793 72.52710 9868 ft 378 kts 113°
2026-05-09 18:09 33.49762 72.55589 9870 ft 374 kts 113°
2026-05-09 18:09 33.48854 72.58446 9869 ft 369 kts 105°
2026-05-09 18:09 33.48350 72.61485 9891 ft 374 kts 99°
2026-05-09 18:10 33.47955 72.64580 9884 ft 376 kts 98°
2026-05-09 18:10 33.47700 72.66634 9889 ft 375 kts 98°
2026-05-09 18:10 33.47171 72.70760 9881 ft 374 kts 99°
2026-05-09 18:10 33.46758 72.73836 9880 ft 373 kts 99°
2026-05-09 18:11 33.46335 72.76904 9889 ft 373 kts 99°
2026-05-09 18:11 33.45905 72.79960 9885 ft 372 kts 99°
2026-05-09 18:11 33.45471 72.83020 9894 ft 371 kts 99°
2026-05-09 18:11 33.45037 72.86066 9893 ft 372 kts 99°
2026-05-09 18:12 33.44606 72.89089 9893 ft 372 kts 99°
2026-05-09 18:12 33.44169 72.92153 9892 ft 373 kts 99°
2026-05-09 18:12 33.43732 72.95212 9884 ft 373 kts 99°
2026-05-09 18:12 33.43292 72.98277 9887 ft 373 kts 99°
2026-05-09 18:13 33.42849 73.01344 9895 ft 374 kts 99°
2026-05-09 18:13 33.42570 73.04408 9868 ft 368 kts 85°
2026-05-09 18:13 33.43298 73.07341 9890 ft 371 kts 59°
2026-05-09 18:13 33.44996 73.09546 9883 ft 353 kts 32°
2026-05-09 18:14 33.47217 73.10514 9887 ft 333 kts
2026-05-09 18:14 33.49422 73.10109 9880 ft 314 kts 334°
2026-05-09 18:14 33.51037 73.08546 9880 ft 297 kts 304°
2026-05-09 18:14 33.51693 73.06300 9852 ft 282 kts 272°
2026-05-09 18:15 33.51480 73.03997 9608 ft 278 kts 259°
2026-05-09 18:15 33.51014 73.01739 9236 ft 279 kts 256°
2026-05-09 18:15 33.50543 72.99481 8870 ft 279 kts 261°
2026-05-09 18:15 33.50410 72.97164 8507 ft 279 kts 275°
2026-05-09 18:16 33.50726 72.94876 8155 ft 279 kts 287°
2026-05-09 18:16 33.51379 72.92718 7810 ft 279 kts 294°
2026-05-09 18:16 33.52216 72.90619 7446 ft 279 kts 297°
2026-05-09 18:16 33.53121 72.88552 7109 ft 280 kts 298°
2026-05-09 18:17 33.53826 72.86978 6842 ft 280 kts 298°
2026-05-09 18:17 33.54439 72.85428 6560 ft 276 kts 287°
2026-05-09 18:17 33.54519 72.83302 6215 ft 275 kts 261°
2026-05-09 18:17 33.54122 72.81064 5965 ft 271 kts 259°
2026-05-09 18:18 33.53769 72.78916 5915 ft 260 kts 260°
2026-05-09 18:18 33.53457 72.76826 5838 ft 250 kts 261°
2026-05-09 18:18 33.53172 72.74774 5482 ft 252 kts 261°
2026-05-09 18:18 33.52889 72.72650 4967 ft 261 kts 262°
2026-05-09 18:19 33.52613 72.70506 4474 ft 269 kts 262°
2026-05-09 18:19 33.52055 72.66026 3806 ft 264 kts 261°
2026-05-09 18:19 33.51801 72.63944 3724 ft 239 kts 262°
2026-05-09 18:20 33.51575 72.62085 3738 ft 211 kts 262°
2026-05-09 18:20 33.51611 72.60352 3740 ft 212 kts 284°
2026-05-09 18:20 33.52273 72.58793 3728 ft 211 kts 310°
2026-05-09 18:20 33.53425 72.57743 3727 ft 209 kts 335°
2026-05-09 18:21 33.54824 72.57381 3726 ft 211 kts
2026-05-09 18:21 33.56258 72.57785 3727 ft 214 kts 27°
2026-05-09 18:21 33.57363 72.58959 3723 ft 214 kts 62°
2026-05-09 18:21 33.57711 72.60654 3731 ft 208 kts 90°
2026-05-09 18:22 33.57702 72.62390 3733 ft 209 kts 96°
2026-05-09 18:22 33.57604 72.64144 3735 ft 211 kts 97°
2026-05-09 18:22 33.57414 72.65859 3750 ft 207 kts 102°
2026-05-09 18:22 33.57163 72.67509 3747 ft 196 kts 103°
2026-05-09 18:23 33.56912 72.69097 3634 ft 195 kts 103°
2026-05-09 18:23 33.56664 72.70682 3388 ft 190 kts 104°
2026-05-09 18:23 33.56422 72.72228 3147 ft 186 kts 104°
2026-05-09 18:23 33.56186 72.73745 2902 ft 180 kts 104°
2026-05-09 18:24 33.55966 72.75153 2713 ft 168 kts 104°
2026-05-09 18:24 33.55755 72.76510 2487 ft 164 kts 103°
2026-05-09 18:24 33.55620 72.77371 2361 ft 160 kts 103°
2026-05-09 18:25 33.55203 72.80043 1945 ft 160 kts 102°
2026-05-09 18:25 33.55005 72.81356 1762 ft 157 kts 98°
2026-05-09 18:25 33.54820 72.82529 1744 ft 124 kts 101°
2026-05-09 18:25 33.54698 72.83321 1763 ft 71 kts 101°
2026-05-09 18:26 33.54670 72.83530 1763 ft 0 kts 97°
2026-05-09 18:27 33.54669 72.83533 1763 ft 4 kts 96°
2026-05-09 18:27 33.54644 72.83679 1762 ft 23 kts 100°
2026-05-09 18:27 33.54635 72.83876 1765 ft 18 kts 49°
2026-05-09 18:28 33.54747 72.83928 1765 ft 17 kts 11°
2026-05-09 18:28 33.54866 72.83957 1766 ft 17 kts 11°
2026-05-09 18:28 33.54966 72.83980 1766 ft 0 kts 11°
2026-05-09 18:31 33.54973 72.83982 1766 ft 4 kts 11°
2026-05-09 18:31 33.55025 72.84001 1763 ft 12 kts 22°
2026-05-09 18:31 33.55049 72.84100 1763 ft 16 kts 95°
2026-05-09 18:32 33.55025 72.84257 1766 ft 22 kts 103°
2026-05-09 18:32 33.54995 72.84452 1766 ft 26 kts 98°
2026-05-09 18:32 33.54963 72.84655 1767 ft 17 kts 101°
2026-05-09 18:32 33.54969 72.84692 1768 ft 8 kts 56°
2026-05-09 18:33 33.55015 72.84724 1767 ft 8 kts 18°
2026-05-09 18:33 33.55031 72.84729 1765 ft 0 kts 14°